Location: Bailleul
(50.3717°N, 2.4440°E)
Time: 04:56:17
(UTC+00:00)

Daily predictions for brighter satellites

Satellite Brightness Start Highest point End
(mag) Time Altitude Azimuth Time Altitude Azimuth Time Altitude Azimuth
Cosmos 1703 Rocket 3.8 00:03:20 40° SW 00:04:44 61° WNW 00:09:10 10° N
Cosmos 1980 Rocket 4.0 00:00:01 10° WSW 00:04:49 28° NW 00:09:40 10° NNE
SL-19 R/B 4.1 00:07:24 55° WSW 00:07:27 55° WSW 00:10:35 10° NNW
Cosmos 2322 Rocket 2.1 00:05:15 34° SSW 00:07:51 87° WNW 00:13:30 10° NNE
Okean 1-7 3.5 00:06:47 36° SW 00:08:11 52° WNW 00:12:30 10° N
Cosmos 923 Rocket 4.4 00:03:22 10° NNW 00:08:31 51° WSW 00:10:11 37° SSW
Cosmos 1818 3.6 00:03:36 10° NW 00:09:07 80° NE 00:12:50 21° SE
Cosmos 1242 Rocket 3.6 00:06:33 10° N 00:09:59 38° ENE 00:11:04 30° ESE
USA 267 4.1 00:10:32 28° SSW 00:11:42 29° SW 00:17:18 10° WNW
ALOS 2 4.0 00:11:03 23° WSW 00:11:59 25° W 00:15:37 10° NW
ATLAS CENTAUR R/B 2.3 00:07:28 10° NW 00:12:21 59° NE 00:16:20 14° ESE
Cosmos 2151 Rocket 4.4 00:09:37 10° N 00:13:50 43° ENE 00:15:52 26° SE
Cosmos 1782 Rocket 4.0 00:13:06 10° NNW 00:17:17 48° W 00:18:18 40° SW
ERS-2 3.9 00:16:24 10° N 00:19:23 24° WNW 00:20:41 20° W
Okean 2 Rocket 3.6 00:15:13 10° N 00:19:40 56° ENE 00:21:37 31° SE
Cosmos 372 Rocket 4.2 00:19:40 36° SSE 00:21:27 55° ESE 00:26:29 10° NNE
RESURS DK-1 4.4 00:18:37 11° W 00:21:49 24° NW 00:25:14 10° N
ADEOS Rocket 3.5 00:20:34 30° SW 00:22:35 41° W 00:28:02 10° NNW
Cosmos 1953 4.1 00:21:26 10° N 00:24:54 27° ENE 00:27:20 16° ESE
Cosmos 1844 Rocket 2.9 00:19:58 10° NW 00:25:23 51° WSW 00:27:18 36° SSW
Cosmos 1844 3.9 00:20:50 10° NW 00:26:33 60° WSW 00:28:57 34° S
Cosmos 2237 4.4 00:26:12 28° SW 00:29:16 69° WNW 00:35:01 10° NNE
Cosmos 2112 Rocket 4.3 00:24:10 10° NNW 00:29:22 52° WSW 00:31:09 36° SSW
Meteor 1-21 4.4 00:26:51 33° S 00:29:33 69° E 00:35:21 10° NNE
Cosmos 1937 Rocket 3.4 00:29:41 37° SSW 00:31:50 89° ESE 00:37:09 10° NNE
NOSS 3-1 (A) 4.4 00:25:14 10° NW 00:32:19 65° NE 00:40:47 10° ESE
Cosmos 1758 3.3 00:28:20 10° N 00:32:19 79° E 00:33:27 45° SSE
Cosmos 1680 Rocket 4.1 00:27:43 10° NW 00:32:42 42° WSW 00:34:17 34° SW
Sich 1 Rocket 3.5 00:29:56 10° N 00:34:22 85° WSW 00:35:48 42° S
Resurs 1-4 Rocket 3.7 00:31:52 10° NE 00:36:14 25° E 00:39:19 15° SE
Cosmos 1470 3.2 00:32:53 10° NNW 00:36:38 45° W 00:37:14 41° WSW
Cosmos 1674 3.0 00:36:19 44° SE 00:37:09 55° E 00:40:50 10° NNE
SL-08 ROCKET BODY 4.5 00:32:26 10° NNW 00:38:17 62° W 00:40:56 32° SSW
CZ-4C R/B 3.1 00:32:07 10° NW 00:39:04 73° NE 00:47:24 10° SE
Okean 2 3.4 00:39:06 44° SSE 00:40:17 70° E 00:44:21 10° NNE
Cosmos 2219 Rocket 2.5 00:39:12 31° S 00:41:33 53° ESE 00:46:59 10° NE
Cosmos 1707 2.7 00:40:54 49° SSW 00:41:50 75° WNW 00:45:43 10° N
SL-16 R/B 3.2 00:38:30 17° WSW 00:42:34 42° NW 00:47:58 10° NNE
NOSS 3-1 (C) 4.0 00:36:37 10° NW 00:43:55 84° SW 00:52:36 10° SE
Cosmos 1437 Rocket 3.8 00:41:03 10° N 00:44:40 39° ENE 00:46:36 22° SE
Cosmos 1726 4.1 00:42:36 10° NW 00:45:00 17° W 00:45:19 17° W
Cosmos 1300 Rocket 4.0 00:40:57 10° NNW 00:45:05 46° W 00:46:12 37° SW
ATLAS 3B R/B 3.7 00:39:48 10° NW 00:46:13 33° WSW 00:48:51 26° SSW
COSMOS 2428 3.4 00:44:03 27° SSE 00:46:36 42° ESE 00:51:57 10° NE
ASTEX 1 3.6 00:42:14 10° N 00:47:02 58° WNW 00:49:02 33° SW
NOSS 2-1 (E) 4.3 00:48:23 21° W 00:49:58 33° NW 00:53:09 10° NNE
Cosmos 1898 Rocket 4.1 00:48:36 25° SW 00:51:29 52° WNW 00:56:42 10° NNE
MOZ.5/SAFIR/RUBIN 5/SL-8 3.7 00:53:59 30° SSE 00:56:21 88° ENE 01:01:08 10° NNW
Cosmos 1626 2.0 00:55:39 48° S 00:56:35 78° E 01:00:16 10° NNE
S3M 4.2 00:54:26 25° S 00:58:17 67° E 01:04:38 10° NNE
Cosmos 2237 Rocket 3.9 00:57:20 13° SE 01:00:48 22° E 01:05:04 10° NE
ADEOS II 3.8 01:00:26 10° NE 01:04:41 24° E 01:08:46 11° SE
Cosmos 2333 4.2 01:01:59 29° SW 01:04:56 82° WNW 01:10:37 10° NNE
KORONAS-FOTON 3.8 01:03:59 43° SW 01:05:02 66° WNW 01:08:49 10° N
Cosmos 1553 Rocket 4.0 01:02:58 29° SSW 01:06:16 74° WNW 01:12:28 10° N
Cosmos 1300 3.6 01:05:49 10° N 01:09:28 44° ENE 01:11:51 19° SE
Cosmos 1386 Rocket 4.4 01:04:24 10° NNW 01:10:26 78° W 01:14:06 25° S
Cosmos 405 Rocket 2.7 01:10:48 39° S 01:12:02 70° E 01:15:46 10° NNE
Cosmos 2221 Rocket 3.7 01:10:52 34° SSW 01:12:39 63° WNW 01:17:03 10° N
Okean 1 Rocket 3.0 01:10:03 10° N 01:14:27 88° ENE 01:16:47 28° S
IDEFIX/ARIANE 42P 4.3 01:12:04 10° NE 01:16:24 25° E 01:20:43 10° SSE
USA 215 4.1 01:10:36 10° ENE 01:16:53 51° N 01:23:10 10° WNW
Cosmos 1238 Rocket 2.8 01:14:18 10° NNW 01:17:07 36° W 01:17:10 36° W
ATLAS 5 CENTAUR R/B 3.3 01:04:33 10° NW 01:17:12 54° WSW 01:19:49 24° S
Cosmos 2360 Rocket 2.9 01:13:37 19° WSW 01:17:24 46° NW 01:22:51 10° NNE
Cosmos 1900 4.5 01:15:01 27° SW 01:17:51 74° NW 01:23:01 10° NE
Cosmos 1461 2.8 01:15:11 10° NW 01:19:20 86° SW 01:23:29 11° SE
Cosmos 1908 3.6 01:15:56 10° NNW 01:19:35 46° W 01:20:34 36° SW
Meteor 2-10 Rocket 4.2 01:16:02 10° N 01:21:47 61° ENE 01:27:14 10° SSE
Cosmos 2278 Rocket 2.3 01:21:20 10° NNW 01:27:03 80° ENE 01:32:44 10° SSE
CZ-2D R/B 2.4 01:21:39 10° NNE 01:27:04 62° ESE 01:30:34 21° S
Cosmos 1048 Rocket 4.0 01:27:57 10° NNW 01:33:05 62° WSW 01:36:29 21° S
Cosmos 1867 3.8 01:30:59 25° SSW 01:34:03 59° SE 01:39:28 10° NE
Gblst 52 Del rocket 4.1 01:30:00 18° WSW 01:34:23 74° SSE 01:39:54 10° ENE
SME Rocket 3.2 01:32:57 30° SSW 01:34:35 53° WSW 01:39:02 10° NNW
Cosmos 2333 Rocket 2.7 01:33:18 20° SW 01:37:03 54° NW 01:42:38 10° NNE
Cosmos 1745 Rocket 4.3 01:33:43 10° NNW 01:39:45 51° W 01:43:37 22° SSW
Cosmos 1125 Rocket 3.7 01:37:42 23° S 01:40:56 65° ESE 01:46:06 10° NNE
Thor Agena Rocket 3.9 01:37:37 10° N 01:42:46 57° WNW 01:46:03 22° SW
SL-16 R/B 2.5 01:37:47 12° SSE 01:43:30 82° WSW 01:49:47 10° NNW
YAOGAN 11 4.2 01:39:55 15° SSE 01:43:33 83° ENE 01:48:03 10° NNW
Cosmos 1943 Rocket 3.7 01:38:31 10° NNW 01:43:49 38° NE 01:49:05 10° ESE
SL-16 R/B 4.4 01:40:24 10° SE 01:43:53 17° E 01:47:23 10° ENE
Cosmos 2322 4.0 01:40:26 21° SW 01:44:13 63° WNW 01:49:56 10° NNE
Cosmos 1242 Rocket 4.3 01:41:52 10° NW 01:44:21 18° W 01:44:51 17° W
Cosmos 1674 Rocket 4.2 01:43:30 25° SW 01:45:38 43° WNW 01:49:48 10° N
EO 1 Del DPAF 4.4 01:42:58 10° NNE 01:46:11 32° E 01:48:39 15° SSE
Cosmos 2298 Rocket 4.1 01:45:28 22° SSW 01:48:54 76° ESE 01:54:14 10° NNE
USA 290 2.4 01:48:51 32° SW 01:50:08 63° WNW 01:53:21 10° NNE
ATLAS CENTAUR R/B 2.7 01:46:47 10° WNW 01:50:52 27° WSW 01:52:17 23° SW
Cosmos 1980 4.2 01:46:55 18° S 01:50:55 53° ESE 01:56:24 10° NE
Cosmos 2322 Rocket 4.1 01:48:23 10° W 01:52:43 22° NW 01:57:05 10° NNE
Cosmos 494 Rocket 4.3 01:50:57 10° NW 01:55:48 44° WSW 01:59:08 19° SSW
AQUA 4.0 01:51:14 10° NNE 01:56:00 71° ESE 01:59:34 18° S
USA 229 DEB 3.9 01:49:33 10° NW 01:56:50 69° SW 02:04:36 10° SSE
USA 229 3.9 01:49:39 10° NW 01:56:56 70° SW 02:04:41 10° SSE
SL-14 R/B 3.6 01:56:23 25° SW 01:58:25 51° WNW 02:02:13 10° N
ATLAS 2AS CENTAUR R/B 4.5 01:51:40 10° WNW 01:58:25 32° NNW 02:04:53 10° NE
Cosmos 1455 Rocket 3.1 01:54:30 10° N 01:59:00 90° NW 02:03:00 13° S
Cosmos 1953 3.3 01:57:40 10° NNW 02:01:14 30° W 02:02:56 22° SW
GP-B 3.7 01:58:02 10° N 02:02:14 42° W 02:04:48 21° SW
NOSS 2-2 (C) 4.2 01:59:20 10° NW 02:04:14 64° SW 02:11:09 10° SSE
Helios 1A 3.0 02:02:54 10° SSE 02:07:06 90° NW 02:11:21 10° NNW
Cosmos 371 Rocket 3.3 02:04:37 20° SSW 02:08:02 87° WNW 02:12:56 10° NNE
NPP 3.7 02:03:30 10° NNE 02:08:54 76° WNW 02:13:05 17° SSW
UNK 3.9 02:07:23 16° S 02:10:53 54° W 02:15:25 10° NNW
CZ-4 R/B 4.1 02:08:01 10° N 02:12:36 54° WNW 02:15:53 18° SW
Meteor 1-28 Rocket 3.1 02:10:52 14° S 02:14:06 72° WSW 02:17:51 10° NNW
Cosmos 1975 Rocket 3.0 02:11:29 17° SSW 02:14:49 83° W 02:19:18 10° N
USA 306 4.4 02:13:37 14° S 02:16:04 24° SE 02:19:26 10° E
Resurs 1-4 Rocket 2.4 02:11:13 10° N 02:16:22 55° WNW 02:20:23 16° SW
Cosmos 1437 Rocket 4.4 02:17:54 10° NW 02:20:33 18° W 02:21:54 15° WSW
SAR-Lupe-2 3.8 02:19:07 10° N 02:22:40 57° WNW 02:25:09 18° SSW
Cosmos 2315 Rocket 4.3 02:18:05 16° SSW 02:23:08 56° WNW 02:29:26 10° N
NOSS 3-1 (A) 4.4 02:16:15 10° NW 02:23:19 45° WSW 02:31:28 10° S
Helios 1B rocket 4.3 02:20:36 10° NE 02:24:04 26° E 02:27:30 10° SSE
Cosmos 2074 Rocket 4.1 02:17:50 10° N 02:24:11 88° E 02:30:29 10° S
Cosmos 2219 Rocket 3.3 02:20:54 11° WSW 02:25:46 34° NW 02:30:51 10° NNE
CZ-4C R/B 3.5 02:20:52 10° NW 02:27:33 39° WSW 02:35:11 10° S
NOSS 0 Rocket 4.0 02:22:49 15° SW 02:28:02 76° WNW 02:34:20 10° NNE
MOS 1 Rocket 3.5 02:26:10 14° SSW 02:29:38 42° W 02:33:44 10° NNW
COSMOS 2428 3.5 02:26:02 12° WSW 02:30:54 41° NW 02:36:18 10° NNE
Cosmos 2184 Rocket 4.0 02:25:43 10° N 02:32:04 85° W 02:38:17 10° S
Cosmos 304 Rocket 3.8 02:30:28 14° SSW 02:34:33 81° WNW 02:39:25 10° NNE
Cosmos 1269 Rocket 4.0 02:31:04 10° NNW 02:36:22 77° WSW 02:41:38 10° SSE
Cosmos 1455 2.0 02:37:05 10° NNW 02:40:49 83° W 02:44:31 10° S
Cosmos 2237 Rocket 2.3 02:39:10 13° SW 02:44:17 72° WNW 02:50:01 10° NNE
Cosmos 1544 Rocket 3.7 02:40:03 10° NNW 02:44:26 60° W 02:48:47 10° S
Cosmos 1300 4.5 02:42:13 10° NW 02:44:41 17° W 02:46:40 12° WSW
ADEOS II 2.3 02:39:34 10° N 02:44:44 58° WNW 02:49:42 11° SW
BREEZE-M DEB (TANK) 3.7 02:34:40 10° WSW 02:45:39 76° S 02:49:02 10° E
Cosmos 1025 Rocket 3.4 02:41:57 13° SSW 02:45:45 51° WNW 02:50:00 10° N
USA 308 4.0 02:42:41 12° SSW 02:46:07 33° SE 02:49:53 10° ENE
Cosmos 2297 3.9 02:47:00 10° NNW 02:52:47 84° ENE 02:58:32 10° SSE
Lacrosse 5 3.5 02:49:11 10° S 02:53:16 25° SE 02:57:22 10° ENE
IDEFIX/ARIANE 42P 2.9 02:51:09 10° N 02:56:18 56° WNW 03:01:26 10° SW
Cosmos 614 Rocket 4.2 02:51:21 10° NNW 02:56:33 75° ENE 03:01:45 10° SSE
USA 215 4.0 02:53:00 10° E 02:59:24 59° NNE 03:05:49 10° WNW
Cosmos 2360 Rocket 4.5 02:59:52 10° WNW 03:02:56 15° NNW 03:06:01 10° N
CZ-2D R/B 3.5 03:02:19 10° N 03:06:43 26° WNW 03:11:03 10° WSW
Cosmos 332 Rocket 4.2 03:02:55 10° SW 03:07:35 51° WNW 03:12:16 10° NNE
Cosmos 2278 Rocket 3.5 03:06:31 10° NW 03:10:28 20° W 03:14:24 10° SW
USA 305 3.2 03:09:23 10° SW 03:13:28 55° SSE 03:17:34 10° ENE
Meteor 2-5 Rocket 4.4 03:10:40 10° SW 03:16:08 41° WNW 03:21:32 10° N
ERBS 3.0 03:14:38 10° SSW 03:17:32 39° SE 03:20:26 10° ENE
Meteor 1-24 Rocket 4.3 03:14:01 10° SW 03:19:26 43° WNW 03:24:42 10° N
Nadezhda 1 Rocket 4.2 03:17:18 10° SSW 03:23:39 67° WNW 03:29:59 10° N
